Location: ??????
(38.3184°N, 23.6932°E)
Time: 02:12:47
(UTC+00:00)

SKYMED 2 - Pass Details

Date: 16 October 2021
Orbit: 621 x 623 km, 97.9° (Epoch: 04 December)

Event Time Altitude Azimuth Distance (km) Brightness Sun altitude
Rises 16:14:58 0° 16° (NNE) 2,911 6.8 -6.5°
Reaches altitude 10° 16:17:11 10° 20° (NNE) 2,000 5.9 -6.9°
Maximum altitude 16:21:29 60° 100° (E) 712 3.6 -7.8°
Drops below altitude 10° 16:25:46 10° 181° (S) 1,984 6.2 -8.6°
Sets 16:27:58 0° 185° (S) 2,886 7.1 -9.0°
